Погода в Лесо-Кяфаре

Россия / Карачаево-Черкесская Республика     43°47′13″N   41°27′07″E
темп.,
°C
ветер,
м/с
пор.,
м/с
влажн.,
%
обл.,
%
осадки,
мм/ч
давл.,
гПа
погр.,
м
19 апреля, пн
пн1900:00+9ююз3573100 0.1 1016139
03:00+9ююз357498 0.1 1016149
06:00+9юз247899 0.1 1016101
09:00+11св118099 0.9 1016391
12:00+13юз2570100 0.1 1014577
15:00+18юз2446100 0.1 10121609
18:00+13юв0173100 0.4 1014157
21:00+10ююз2277100 0.5 101563
20 апреля, вт
вт2000:00+9ю337698 0.0 101382
03:00+9ю347699 0.1 101087
06:00+10ю3573100 0.2 1008127
09:00+19ююв41743100 0.2 10032022
12:00+21ю71936100 0.3 10032409
15:00+21юз5173667 0.8 10042493
18:00+13св238562 0.5 1009346
21:00+10всв129547 0.8 1011131
21 апреля, ср
ср2100:00+8ссв229580 0.0 1012199
03:00+6ссв2296100 0.1 1015243
06:00+5св239894 3.8 1016244
09:00+5с2296100 5.5 1018468
12:00+6ссв219298 0.8 1018539
15:00+5с2294100 2.2 1019394
18:00+5св229799 1.4 1020212
21:00+5св0097100 1.4 1022128
22 апреля, чт
чт2200:00+5св0095100 0.0 102166
03:00+5сз1197100 0.1 102140
06:00+5ссз1197100 0.1 1021133
09:00+6св219092 0.3 1021414
12:00+8св2281100 0.4 1020879
15:00+7ссв1288100 0.9 1021401
18:00+6ссз1295100 0.4 1022203
21:00+5сз1297100 3.6 1023371
23 апреля, пт
пт2300:00+5с1196100 0.7 102383
03:00+5ююз119156 0.8 102349
06:00+3ююз119134 0.2 102418
09:00+8ссв21756 0.9 1023724
12:00+10с226532 1.9 10221210
15:00+9ссв327171 5.1 1022913
18:00+7св128469 2.2 1023290
21:00+4ю21925 2.3 102413